Time,TemperatureF,DewpointF,PressureIn,WindDirection,WindDirectionDegrees,WindSpeedMPH,WindSpeedGustMPH,Humidity,HourlyPrecipIn,Conditions,Clouds,dailyrainin,SoftwareType,DateUTC
2013-02-13 06:30:00,25.6,21.7,29.85,NW,306,0.0,9.0,85,0.00,,,0.00,Wunderground v.1.15,2013-02-13 11:30:00,
2013-02-13 07:00:00,24.3,21.0,29.86,NW,305,0.0,0.0,87,0.00,,,0.00,Wunderground v.1.15,2013-02-13 12:00:00,
2013-02-13 07:30:00,27.5,23.6,29.86,WSW,256,0.0,0.0,85,0.00,,,0.00,Wunderground v.1.15,2013-02-13 12:30:00,
2013-02-13 08:00:00,31.0,25.2,29.86,West,276,0.0,0.0,79,0.00,,,0.00,Wunderground v.1.15,2013-02-13 13:00:00,
2013-02-13 08:30:00,33.9,26.5,29.86,West,263,0.0,0.0,74,0.00,,,0.00,Wunderground v.1.15,2013-02-13 13:30:00,
2013-02-13 09:00:00,36.6,26.3,29.86,WNW,293,2.0,2.0,66,0.00,,,0.00,Wunderground v.1.15,2013-02-13 14:00:00,
2013-02-13 09:30:00,37.7,25.8,29.86,West,267,4.0,4.0,62,0.00,,,0.00,Wunderground v.1.15,2013-02-13 14:30:00,
2013-02-13 10:00:00,38.9,26.6,29.85,SW,232,3.0,3.0,61,0.00,,,0.00,Wunderground v.1.15,2013-02-13 15:00:00,
2013-02-13 10:30:00,39.7,26.5,29.84,West,278,3.0,3.0,59,0.00,,,0.00,Wunderground v.1.15,2013-02-13 15:30:00,
2013-02-13 11:00:00,40.9,26.8,29.82,SW,231,2.0,2.0,57,0.00,,,0.00,Wunderground v.1.15,2013-02-13 16:00:00,
2013-02-13 11:30:00,42.0,27.9,29.82,ESE,105,2.0,2.0,57,0.00,,,0.00,Wunderground v.1.15,2013-02-13 16:30:00,
2013-02-13 12:00:00,42.2,27.2,29.81,SW,236,1.0,1.0,55,0.00,,,0.00,Wunderground v.1.15,2013-02-13 17:00:00,
2013-02-13 12:30:00,43.5,27.5,29.81,West,273,2.0,2.0,53,0.00,,,0.00,Wunderground v.1.15,2013-02-13 17:30:00,
2013-02-13 13:00:00,41.7,26.7,29.80,West,264,1.0,7.0,55,0.00,,,0.00,Wunderground v.1.15,2013-02-13 18:00:00,
2013-02-13 13:30:00,41.8,26.8,29.80,West,277,3.0,4.0,55,0.00,,,0.00,Wunderground v.1.15,2013-02-13 18:30:00,
2013-02-13 14:00:00,41.5,26.5,29.79,WSW,253,3.0,7.0,55,0.00,,,0.00,Wunderground v.1.15,2013-02-13 19:00:00,
2013-02-13 14:30:00,41.3,26.8,29.78,WSW,242,2.0,4.0,56,0.00,,,0.00,Wunderground v.1.15,2013-02-13 19:30:00,
2013-02-13 15:00:00,42.5,27.0,29.76,WSW,257,0.0,0.0,54,0.00,,,0.00,Wunderground v.1.15,2013-02-13 20:00:00,
2013-02-13 15:30:00,42.7,26.7,29.76,WNW,291,1.0,2.0,53,0.00,,,0.00,Wunderground v.1.15,2013-02-13 20:30:00,
2013-02-13 16:00:00,42.7,25.8,29.74,West,269,1.0,1.0,51,0.00,,,0.00,Wunderground v.1.15,2013-02-13 21:00:00,
2013-02-13 16:30:00,40.7,25.3,29.75,West,278,1.0,2.0,54,0.00,,,0.00,Wunderground v.1.15,2013-02-13 21:30:00,
2013-02-13 17:00:00,39.7,25.3,29.75,West,267,1.0,1.0,56,0.00,,,0.00,Wunderground v.1.15,2013-02-13 22:00:00,
2013-02-13 17:30:00,36.8,24.6,29.75,West,262,0.0,0.0,61,0.00,,,0.00,Wunderground v.1.15,2013-02-13 22:30:00,
2013-02-13 18:00:00,34.9,24.7,29.74,West,262,0.0,0.0,66,0.00,,,0.00,Wunderground v.1.15,2013-02-13 23:00:00,
2013-02-13 18:30:00,34.7,26.6,29.74,East,88,0.0,0.0,72,0.00,,,0.00,Wunderground v.1.15,2013-02-13 23:30:00,
2013-02-13 19:00:00,35.1,27.6,29.74,East,88,0.0,0.0,74,0.00,,,0.00,Wunderground v.1.15,2013-02-14 00:00:00,
2013-02-13 19:30:00,35.3,28.2,29.74,ENE,76,0.0,0.0,75,0.00,,,0.00,Wunderground v.1.15,2013-02-14 00:30:00,
2013-02-13 20:00:00,34.4,27.9,29.73,ENE,76,0.0,0.0,77,0.00,,,0.00,Wunderground v.1.15,2013-02-14 01:00:00,
2013-02-13 20:30:00,33.7,27.9,29.74,ENE,77,0.0,0.0,79,0.00,,,0.00,Wunderground v.1.15,2013-02-14 01:30:00,
2013-02-13 21:00:00,33.2,28.0,29.73,ENE,76,0.0,0.0,81,0.00,,,0.00,Wunderground v.1.15,2013-02-14 02:00:00,
2013-02-13 21:30:00,33.3,28.1,29.73,ENE,77,0.0,0.0,81,0.00,,,0.00,Wunderground v.1.15,2013-02-14 02:30:00,
2013-02-13 22:00:00,33.4,28.5,29.72,East,80,0.0,0.0,82,0.00,,,0.00,Wunderground v.1.15,2013-02-14 03:00:00,
2013-02-13 22:30:00,33.3,28.4,29.72,East,81,0.0,0.0,82,0.00,,,0.00,Wunderground v.1.15,2013-02-14 03:30:00,
2013-02-13 23:00:00,33.4,28.5,29.72,West,259,0.0,0.0,82,0.00,,,0.00,Wunderground v.1.15,2013-02-14 04:00:00,
2013-02-13 23:30:00,33.4,28.8,29.70,West,262,0.0,0.0,83,0.00,,,0.00,Wunderground v.1.15,2013-02-14 04:30:00,